"startDT [UTC]","vpos","CH4 [ppm]","stdev(CH4) [ppm]","CO2 [ppm]","stdev(CO2) [ppm]","H2O [ppm]","stdev(H2O)","p_LGR [torr]","T_LGR [C]","mt1_LGR [us]","mt2_LGR [us]","T_ECpre [C]","T_EC1 [C]","T_EC2 [C]","p_inlet [hPa]","p_in [hPa]","p_out [hPa]","T_inlet [C]","RH_inlet [%]","dwpt_inlet [C]","T_vent [C]","RH_vent [%]","dwpt_vent [C]","flow_vent [l min-1]","flow_inlet [l min-1]","dwpt_sample [C]","T_room [C]"
2013-03-02 00:00:00,0.0,1.9345,0.0009,405.62,0.36,176.8,33.3,138.03,31.86,24.66,36.41,0.04,-272.75,-272.76,-48,558,-927,23.9,4.0,-20.8,23.9,4.1,-20.4,5.73,2.35,-24.5,28.6
2013-03-02 00:01:00,0.0,1.9344,0.0009,405.59,0.36,182.6,31.5,138.03,31.86,24.66,36.40,0.04,-272.75,-272.76,-48,558,-927,23.9,3.9,-20.8,23.9,4.1,-20.4,5.73,2.31,-24.2,28.7
2013-03-02 00:02:00,0.0,1.9346,0.0009,405.63,0.35,173.6,34.5,138.03,31.86,24.66,36.41,0.04,-272.75,-272.75,-48,558,-926,23.9,3.9,-20.8,23.9,4.1,-20.4,5.73,2.32,-24.2,28.7
2013-03-02 00:03:00,0.0,1.9343,0.0009,405.68,0.36,173.1,36.1,138.03,31.86,24.66,36.41,0.04,-272.76,-272.75,-48,558,-927,23.9,3.9,-20.8,23.9,4.1,-20.4,5.73,2.37,-24.2,28.7
2013-03-02 00:04:00,0.0,1.9347,0.0011,405.56,0.40,180.4,32.0,138.03,31.86,24.66,36.41,0.04,-272.75,-272.75,-48,558,-927,23.9,3.9,-20.8,23.9,4.1,-20.4,5.73,2.40,-24.2,28.7
2013-03-02 00:05:00,0.0,1.9347,0.0011,405.66,0.34,175.0,27.5,138.03,31.86,24.66,36.40,0.04,-272.76,-272.76,-48,558,-926,23.9,4.0,-20.7,23.9,4.1,-20.4,5.73,2.35,-24.2,28.7
2013-03-02 00:06:00,0.0,1.9345,0.0008,405.63,0.37,179.3,29.8,138.03,31.86,24.66,36.40,0.04,-272.76,-272.76,-48,558,-927,23.9,4.0,-20.6,23.9,4.2,-20.2,5.73,2.30,-24.2,28.7
2013-03-02 00:07:00,0.0,1.9346,0.0010,405.88,0.39,186.3,30.7,138.03,31.86,24.66,36.40,0.04,-272.76,-272.75,-48,558,-926,23.9,4.0,-20.5,23.9,4.2,-20.2,5.73,2.32,-24.2,28.7
2013-03-02 00:08:00,0.0,1.9347,0.0010,405.67,0.41,183.1,34.5,138.03,31.86,24.65,36.41,0.04,-272.75,-272.75,-48,558,-927,23.9,4.0,-20.5,23.9,4.2,-20.2,5.73,2.38,-24.2,28.7
2013-03-02 00:09:00,0.0,1.9346,0.0010,405.76,0.39,184.8,31.8,138.03,31.86,24.66,36.40,0.04,-272.75,-272.75,-48,558,-927,23.9,4.0,-20.5,23.9,4.2,-20.2,5.73,2.40,-24.2,28.7
2013-03-02 00:10:00,0.0,1.9347,0.0010,405.66,0.38,187.9,26.8,138.03,31.86,24.66,36.41,0.04,-272.75,-272.76,-49,558,-926,23.9,4.1,-20.5,23.9,4.2,-20.1,5.73,2.33,-24.2,28.7
2013-03-02 00:11:00,0.0,1.9345,0.0009,405.74,0.42,173.9,27.7,138.03,31.86,24.66,36.40,0.04,-272.75,-272.75,-49,558,-927,23.9,4.1,-20.5,23.9,4.2,-20.1,5.73,2.30,-24.2,28.7
2013-03-02 00:12:00,0.0,1.9345,0.0009,405.61,0.37,179.6,26.2,138.03,31.86,24.66,36.41,0.04,-272.75,-272.75,-48,558,-926,23.9,4.0,-20.6,23.9,4.2,-20.2,5.73,2.33,-24.2,28.7
2013-03-02 00:13:00,0.0,1.9346,0.0012,405.71,0.36,186.2,28.7,138.03,31.86,24.66,36.41,0.04,-272.75,-272.75,-48,558,-926,23.9,4.0,-20.6,23.9,4.2,-20.2,5.73,2.39,-24.2,28.7
2013-03-02 00:14:00,0.0,1.9349,0.0010,405.78,0.33,189.9,27.1,138.03,31.86,24.66,36.40,0.04,-272.75,-272.76,-48,558,-927,23.9,4.0,-20.6,23.9,4.2,-20.2,5.73,2.38,-24.2,28.7
2013-03-02 00:15:00,0.0,1.9352,0.0010,405.80,0.34,184.9,30.0,138.03,31.86,24.65,36.40,0.04,-272.75,-272.75,-49,558,-926,23.9,4.0,-20.5,23.9,4.2,-20.2,5.73,2.32,-24.2,28.6
2013-03-02 00:16:00,0.0,1.9348,0.0008,405.67,0.40,177.1,33.8,138.03,31.85,24.65,36.41,0.04,-272.76,-272.75,-49,558,-927,23.9,4.0,-20.6,23.9,4.2,-20.2,5.73,2.30,-24.2,28.6
2013-03-02 00:17:00,0.0,1.9349,0.0009,405.65,0.39,185.5,30.7,138.03,31.85,24.66,36.41,0.04,-272.75,-272.75,-49,558,-926,23.9,4.0,-20.6,23.9,4.2,-20.2,5.73,2.34,-24.2,28.7
2013-03-02 00:18:00,0.0,1.9347,0.0009,405.71,0.37,184.5,30.1,138.03,31.85,24.66,36.41,0.04,-272.75,-272.75,-48,558,-926,23.9,4.0,-20.6,23.9,4.2,-20.2,5.73,2.39,-24.2,28.7
2013-03-02 00:19:00,0.0,1.9347,0.0008,405.61,0.38,190.6,32.1,138.03,31.85,24.66,36.41,0.04,-272.75,-272.76,-48,558,-927,23.9,4.0,-20.6,23.9,4.2,-20.2,5.73,2.39,-24.2,28.7
2013-03-02 00:20:00,0.0,1.9345,0.0008,405.74,0.37,190.5,31.1,138.03,31.85,24.66,36.40,0.04,-272.75,-272.76,-48,558,-926,23.9,4.0,-20.5,23.9,4.2,-20.1,5.73,2.33,-24.2,28.7
2013-03-02 00:21:00,0.0,1.9349,0.0009,405.72,0.42,186.1,31.0,138.03,31.86,24.65,36.41,0.04,-272.75,-272.75,-48,558,-926,23.9,4.1,-20.4,23.9,4.2,-20.0,5.73,2.30,-24.2,28.7
2013-03-02 00:22:00,0.0,1.9347,0.0008,405.81,0.39,182.7,31.8,138.03,31.86,24.65,36.40,0.04,-272.75,-272.75,-48,558,-926,23.9,4.1,-20.3,23.9,4.3,-19.9,5.73,2.35,-24.2,28.7
2013-03-02 00:23:00,0.0,1.9350,0.0010,405.72,0.34,190.8,32.1,138.03,31.86,24.65,36.41,0.04,-272.75,-272.75,-48,558,-926,23.9,4.1,-20.3,23.9,4.3,-20.0,5.73,2.39,-24.2,28.7
2013-03-02 00:24:00,0.0,1.9347,0.0010,405.65,0.34,184.5,33.4,138.03,31.86,24.66,36.41,0.04,-272.75,-272.75,-48,558,-926,23.9,4.1,-20.4,23.9,4.2,-20.0,5.73,2.37,-24.2,28.7
2013-03-02 00:25:00,0.0,1.9351,0.0010,405.72,0.44,178.5,28.7,138.03,31.86,24.65,36.40,0.04,-272.75,-272.75,-48,558,-926,23.9,4.1,-20.4,23.9,4.2,-20.0,5.73,2.31,-24.2,28.7
2013-03-02 00:26:00,0.0,1.9347,0.0009,405.81,0.31,185.5,29.5,138.03,31.86,24.66,36.40,0.04,-272.76,-272.76,-49,558,-927,23.9,4.1,-20.3,23.9,4.3,-19.9,5.73,2.31,-24.2,28.7
2013-03-02 00:27:00,0.0,1.9351,0.0009,405.81,0.35,186.4,32.1,138.03,31.86,24.65,36.41,0.04,-272.75,-272.75,-48,558,-926,23.9,4.1,-20.3,23.9,4.3,-19.9,5.73,2.37,-24.2,28.6
2013-03-02 00:28:00,0.0,1.9350,0.0009,405.78,0.36,181.4,27.5,138.03,31.86,24.65,36.40,0.04,-272.76,-272.75,-48,558,-926,23.9,4.1,-20.3,23.9,4.3,-19.9,5.73,2.40,-24.2,28.7
2013-03-02 00:29:00,0.0,1.9348,0.0008,405.62,0.40,189.8,30.0,138.03,31.86,24.65,36.41,0.04,-272.75,-272.75,-49,558,-926,23.9,4.2,-20.2,23.9,4.3,-19.8,5.73,2.36,-24.2,28.6
2013-03-02 00:30:00,0.0,1.9346,0.0009,405.73,0.40,177.9,32.6,138.03,31.86,24.66,36.40,0.04,-272.76,-272.76,-49,558,-926,23.9,4.2,-20.2,23.9,4.3,-19.8,5.73,2.31,-24.2,28.6
2013-03-02 00:31:00,0.0,1.9349,0.0010,405.65,0.36,184.1,25.7,138.03,31.86,24.66,36.41,0.04,-272.75,-272.76,-49,558,-926,23.9,4.2,-20.2,23.9,4.3,-19.8,5.73,2.31,-24.2,28.6
2013-03-02 00:32:00,0.0,1.9346,0.0009,405.60,0.31,188.5,33.8,138.03,31.86,24.66,36.42,0.04,-272.75,-272.75,-48,558,-926,23.9,4.1,-20.3,23.9,4.3,-19.8,5.73,2.37,-24.2,28.7
2013-03-02 00:33:00,0.0,1.9351,0.0010,405.63,0.36,185.7,28.4,138.03,31.86,24.66,36.41,0.04,-272.76,-272.76,-48,558,-926,23.9,4.2,-20.2,23.9,4.3,-19.8,5.73,2.39,-24.2,28.6
2013-03-02 00:34:00,0.0,1.9354,0.0011,405.65,0.26,173.4,30.0,138.03,31.86,24.65,36.41,0.04,-272.75,-272.76,-49,558,-926,23.9,4.1,-20.3,23.8,4.3,-19.9,5.73,2.35,-24.2,28.7
2013-03-02 00:35:00,0.0,1.9353,0.0010,405.73,0.42,184.1,31.2,138.03,31.86,24.65,36.41,0.04,-272.75,-272.76,-49,558,-926,23.8,4.1,-20.3,23.8,4.3,-19.9,5.73,2.30,-24.2,28.7
2013-03-02 00:36:00,0.0,1.9353,0.0010,405.60,0.36,182.2,32.6,138.03,31.86,24.66,36.41,0.04,-272.76,-272.75,-49,558,-926,23.8,4.1,-20.4,23.8,4.3,-20.0,5.73,2.32,-24.2,28.7
2013-03-02 00:37:00,0.0,1.9354,0.0009,405.77,0.32,185.6,28.7,138.03,31.86,24.66,36.40,0.04,-272.75,-272.76,-49,558,-926,23.9,4.1,-20.5,23.8,4.2,-20.0,5.73,2.38,-24.2,28.7
2013-03-02 00:38:00,0.0,1.9353,0.0009,405.71,0.40,183.5,35.4,138.03,31.86,24.66,36.41,0.04,-272.75,-272.75,-49,558,-926,23.8,4.1,-20.4,23.8,4.2,-20.0,5.73,2.39,-24.2,28.7
2013-03-02 00:39:00,0.0,1.9354,0.0008,405.70,0.40,179.2,29.4,138.03,31.86,24.66,36.41,0.04,-272.75,-272.75,-49,558,-926,23.8,4.1,-20.4,23.8,4.3,-20.0,5.73,2.34,-24.2,28.7
2013-03-02 00:40:00,0.0,1.9349,0.0009,405.62,0.38,188.9,31.1,138.03,31.86,24.66,36.41,0.04,-272.75,-272.75,-48,558,-926,23.9,4.1,-20.4,23.8,4.2,-20.0,5.73,2.30,-24.2,28.7
2013-03-02 00:41:00,0.0,1.9351,0.0009,405.67,0.30,181.0,30.6,138.03,31.86,24.66,36.41,0.04,-272.75,-272.75,-48,558,-926,23.8,4.1,-20.5,23.8,4.2,-20.0,5.73,2.33,-24.2,28.7
2013-03-02 00:42:00,0.0,1.9349,0.0009,405.77,0.36,187.8,31.1,138.03,31.86,24.66,36.41,0.04,-272.75,-272.75,-48,558,-926,23.8,4.1,-20.4,23.8,4.3,-20.0,5.73,2.38,-24.2,28.7
2013-03-02 00:43:00,0.0,1.9354,0.0009,405.78,0.40,185.0,26.6,138.03,31.86,24.66,36.40,0.04,-272.75,-272.76,-49,558,-926,23.8,4.1,-20.4,23.8,4.3,-20.0,5.73,2.38,-24.2,28.7
2013-03-02 00:44:00,0.0,1.9356,0.0009,405.75,0.37,181.1,29.0,138.03,31.86,24.65,36.41,0.04,-272.76,-272.75,-49,558,-926,23.8,4.1,-20.3,23.8,4.3,-19.9,5.73,2.33,-24.2,28.7
2013-03-02 00:45:00,0.0,1.9358,0.0008,405.77,0.32,185.1,32.9,138.03,31.85,24.65,36.40,0.04,-272.75,-272.76,-49,558,-926,23.8,4.1,-20.4,23.8,4.2,-20.0,5.73,2.29,-24.2,28.7
2013-03-02 00:46:00,0.0,1.9354,0.0009,405.72,0.30,190.1,29.4,138.03,31.85,24.66,36.41,0.04,-272.75,-272.76,-48,558,-926,23.9,4.1,-20.4,23.8,4.2,-20.1,5.73,2.34,-24.2,28.6
2013-03-02 00:47:00,0.0,1.9359,0.0007,405.68,0.38,185.0,29.9,138.03,31.85,24.66,36.41,0.04,-272.75,-272.75,-48,558,-926,23.8,4.0,-20.6,23.8,4.2,-20.2,5.73,2.39,-24.2,28.6
2013-03-02 00:48:00,0.0,1.9357,0.0009,405.69,0.42,180.9,29.3,138.03,31.85,24.66,36.41,0.04,-272.75,-272.75,-48,558,-926,23.8,4.0,-20.6,23.8,4.2,-20.2,5.73,2.38,-24.2,28.7
2013-03-02 00:49:00,0.0,1.9357,0.0010,405.71,0.37,195.0,32.5,138.03,31.85,24.66,36.41,0.04,-272.75,-272.75,-48,558,-926,23.8,4.0,-20.7,23.8,4.2,-20.3,5.73,2.33,-24.2,28.6
2013-03-02 00:50:00,0.0,1.9356,0.0008,405.59,0.41,185.4,28.1,138.03,31.85,24.66,36.41,0.04,-272.75,-272.75,-48,558,-926,23.8,4.0,-20.7,23.8,4.1,-20.3,5.73,2.30,-24.2,28.7
2013-03-02 00:51:00,0.0,1.9358,0.0009,405.64,0.35,192.4,31.4,138.03,31.85,24.66,36.41,0.04,-272.75,-272.75,-48,558,-926,23.8,4.0,-20.7,23.8,4.2,-20.2,5.73,2.34,-24.2,28.7
2013-03-02 00:52:00,0.0,1.9364,0.0008,405.79,0.30,178.3,30.7,138.03,31.85,24.65,36.41,0.04,-272.75,-272.75,-48,558,-926,23.8,4.0,-20.7,23.8,4.1,-20.3,5.73,2.39,-24.2,28.6
2013-03-02 00:53:00,0.0,1.9356,0.0009,405.60,0.36,185.3,33.1,138.03,31.85,24.66,36.41,0.04,-272.76,-272.75,-48,558,-926,23.9,4.0,-20.7,23.8,4.1,-20.3,5.73,2.39,-24.2,28.6
2013-03-02 00:54:00,0.0,1.9361,0.0009,405.65,0.36,185.9,33.0,138.03,31.85,24.65,36.41,0.04,-272.75,-272.76,-48,558,-926,23.8,4.0,-20.6,23.8,4.1,-20.2,5.73,2.35,-24.2,28.7
2013-03-02 00:55:00,0.0,1.9359,0.0008,405.67,0.32,191.8,28.4,138.03,31.85,24.66,36.41,0.04,-272.75,-272.75,-48,558,-926,23.9,4.0,-20.6,23.8,4.2,-20.2,5.73,2.30,-24.2,28.7
2013-03-02 00:56:00,0.0,1.9359,0.0009,405.64,0.36,187.8,31.2,138.03,31.85,24.66,36.42,0.04,-272.75,-272.75,-48,558,-926,23.9,4.0,-20.6,23.8,4.2,-20.2,5.73,2.33,-24.2,28.7
2013-03-02 00:57:00,0.0,1.9356,0.0010,405.80,0.36,192.3,32.8,138.03,31.85,24.66,36.40,0.04,-272.75,-272.76,-48,558,-926,23.9,4.0,-20.6,23.8,4.2,-20.2,5.73,2.38,-24.2,28.6
2013-03-02 00:58:00,0.0,1.9357,0.0009,405.65,0.39,180.5,29.8,138.03,31.85,24.66,36.41,0.04,-272.76,-272.75,-48,558,-926,23.8,4.0,-20.6,23.8,4.2,-20.2,5.73,2.39,-24.2,28.6
2013-03-02 00:59:00,0.0,1.9359,0.0009,405.70,0.39,190.4,29.6,138.03,31.85,24.66,36.41,0.04,-272.75,-272.75,-48,558,-926,23.8,4.0,-20.6,23.8,4.2,-20.2,5.73,2.34,-24.2,28.7
2013-03-02 01:00:00,0.0,1.9359,0.0009,405.75,0.39,186.7,31.3,138.03,31.85,24.66,36.41,0.04,-272.75,-272.76,-48,558,-926,23.9,4.0,-20.6,23.8,4.2,-20.2,5.73,2.30,-24.2,28.7
2013-03-02 01:01:00,0.0,1.9362,0.0009,405.81,0.39,181.9,29.9,138.03,31.85,24.66,36.41,0.04,-272.75,-272.76,-48,558,-926,23.8,4.0,-20.7,23.8,4.1,-20.3,5.73,2.32,-24.2,28.7
2013-03-02 01:02:00,0.0,1.9361,0.0009,405.66,0.37,180.6,27.6,138.03,31.85,24.65,36.41,0.04,-272.75,-272.75,-48,558,-926,23.8,4.0,-20.8,23.8,4.1,-20.4,5.73,2.37,-24.2,28.7
2013-03-02 01:03:00,0.0,1.9358,0.0009,405.74,0.39,183.7,26.3,138.03,31.85,24.66,36.41,0.04,-272.75,-272.75,-48,558,-926,23.8,3.9,-20.8,23.8,4.1,-20.4,5.73,2.39,-24.2,28.7
2013-03-02 01:04:00,0.0,1.9360,0.0009,405.78,0.34,186.2,32.1,138.03,31.85,24.66,36.41,0.04,-272.75,-272.75,-48,558,-926,23.8,4.0,-20.7,23.8,4.1,-20.4,5.73,2.37,-24.2,28.6
2013-03-02 01:05:00,0.0,1.9362,0.0009,405.66,0.38,184.6,33.0,138.03,31.85,24.65,36.41,0.04,-272.75,-272.75,-48,558,-926,23.8,4.0,-20.7,23.8,4.1,-20.3,5.73,2.34,-24.2,28.7
2013-03-02 01:06:00,0.0,1.9356,0.0009,405.85,0.40,189.4,29.0,138.03,31.85,24.66,36.40,0.04,-272.75,-272.75,-48,558,-926,23.8,4.0,-20.7,23.8,4.1,-20.4,5.73,2.31,-24.2,28.6
2013-03-02 01:07:00,0.0,1.9363,0.0009,405.73,0.38,184.3,33.4,138.03,31.84,24.65,36.40,0.04,-272.75,-272.75,-48,558,-926,23.8,4.0,-20.7,23.8,4.1,-20.4,5.73,2.32,-24.2,28.6
2013-03-02 01:08:00,0.0,1.9363,0.0010,405.77,0.33,186.5,28.0,138.03,31.84,24.65,36.40,0.04,-272.75,-272.75,-48,558,-926,23.8,4.0,-20.8,23.8,4.1,-20.4,5.73,2.37,-24.1,28.7
2013-03-02 01:09:00,0.0,1.9357,0.0009,405.73,0.42,184.6,29.4,138.03,31.84,24.66,36.41,0.04,-272.75,-272.75,-48,558,-926,23.8,4.1,-20.3,23.8,4.3,-19.9,5.73,2.40,-24.1,28.6
2013-03-02 01:10:00,0.0,1.9362,0.0010,405.76,0.40,191.9,33.7,138.03,31.84,24.66,36.40,0.04,-272.76,-272.75,-48,558,-926,23.8,4.1,-20.5,23.8,4.2,-20.1,5.73,2.37,-24.1,28.7
2013-03-02 01:11:00,0.0,1.9367,0.0010,405.77,0.36,178.3,29.3,138.03,31.84,24.65,36.41,0.04,-272.75,-272.75,-48,558,-926,23.8,4.1,-20.5,23.8,4.2,-20.1,5.73,2.32,-24.1,28.7
2013-03-02 01:12:00,0.0,1.9364,0.0008,405.76,0.36,183.9,30.1,138.03,31.84,24.65,36.40,0.04,-272.75,-272.75,-48,558,-926,23.8,4.1,-20.5,23.8,4.2,-20.1,5.73,2.31,-24.1,28.7
2013-03-02 01:13:00,0.0,1.9360,0.0008,405.75,0.37,188.7,32.9,138.03,31.84,24.66,36.41,0.04,-272.75,-272.75,-48,558,-926,23.8,4.0,-20.6,23.8,4.2,-20.2,5.73,2.35,-24.1,28.7
2013-03-02 01:14:00,0.0,1.9368,0.0008,405.83,0.37,184.5,29.8,138.03,31.84,24.65,36.40,0.04,-272.75,-272.75,-48,558,-926,23.8,4.0,-20.6,23.8,4.2,-20.2,5.73,2.39,-24.1,28.7
2013-03-02 01:15:00,0.0,1.9365,0.0010,405.80,0.37,187.9,29.1,138.03,31.84,24.66,36.40,0.04,-272.75,-272.76,-48,558,-926,23.8,4.0,-20.6,23.8,4.2,-20.2,5.73,2.39,-24.1,28.6
2013-03-02 01:16:00,0.0,1.9366,0.0009,405.69,0.39,184.2,32.7,138.03,31.83,24.66,36.41,0.04,-272.75,-272.75,-48,558,-927,23.8,4.0,-20.7,23.8,4.1,-20.3,5.73,2.35,-24.1,28.7
2013-03-02 01:17:00,0.0,1.9366,0.0009,405.90,0.42,187.7,30.0,138.03,31.83,24.66,36.40,0.04,-272.75,-272.76,-48,558,-926,23.9,4.0,-20.7,23.8,4.1,-20.3,5.73,2.32,-24.1,28.6
2013-03-02 01:18:00,0.0,1.9363,0.0008,405.76,0.31,187.7,31.3,138.03,31.83,24.66,36.41,0.04,-272.75,-272.75,-48,558,-926,23.8,4.0,-20.7,23.8,4.1,-20.3,5.73,2.32,-24.1,28.6
2013-03-02 01:19:00,0.0,1.9362,0.0009,405.80,0.36,182.9,34.1,138.03,31.82,24.66,36.40,0.04,-272.75,-272.75,-48,558,-926,23.8,4.0,-20.7,23.8,4.1,-20.3,5.73,2.35,-24.1,28.7
2013-03-02 01:20:00,0.0,1.9367,0.0010,405.69,0.39,184.5,29.2,138.03,31.82,24.66,36.41,0.04,-272.75,-272.75,-48,558,-926,23.9,4.0,-20.7,23.8,4.2,-20.3,5.73,2.38,-24.1,28.7
2013-03-02 01:21:00,0.0,1.9365,0.0008,405.74,0.41,184.1,30.6,138.03,31.82,24.66,36.41,0.04,-272.75,-272.76,-48,558,-926,23.9,4.0,-20.6,23.8,4.2,-20.2,5.73,2.38,-24.1,28.7
2013-03-02 01:22:00,0.0,1.9363,0.0009,405.83,0.39,182.3,28.7,138.03,31.82,24.66,36.40,0.04,-272.75,-272.75,-48,558,-926,23.8,4.0,-20.6,23.8,4.2,-20.2,5.73,2.35,-24.1,28.7
2013-03-02 01:23:00,0.0,1.9363,0.0009,405.78,0.33,184.9,31.1,138.04,31.82,24.66,36.40,0.04,-272.75,-272.75,-48,558,-926,23.8,4.0,-20.6,23.8,4.2,-20.2,5.73,2.31,-24.1,28.7
2013-03-02 01:24:00,0.0,1.9362,0.0009,405.75,0.41,183.6,28.6,138.03,31.81,24.66,36.41,0.04,-272.75,-272.76,-48,558,-926,23.9,4.0,-20.6,23.8,4.2,-20.2,5.73,2.31,-24.1,28.7
2013-03-02 01:25:00,0.0,1.9362,0.0011,405.75,0.36,186.1,27.8,138.04,31.81,24.66,36.40,0.04,-272.75,-272.76,-48,558,-926,23.8,4.0,-20.6,23.8,4.2,-20.2,5.73,2.36,-24.1,28.7
2013-03-02 01:26:00,0.0,1.9364,0.0008,405.80,0.37,176.9,35.5,138.04,31.81,24.66,36.40,0.04,-272.75,-272.75,-48,558,-926,23.8,4.0,-20.7,23.8,4.1,-20.3,5.73,2.39,-24.1,28.7
2013-03-02 01:27:00,0.0,1.9360,0.0008,405.71,0.36,193.5,28.0,138.04,31.81,24.66,36.40,0.04,-272.76,-272.75,-48,559,-926,23.8,4.0,-20.7,23.8,4.1,-20.3,5.73,2.38,-24.1,28.7
2013-03-02 01:28:00,0.0,1.9366,0.0010,405.71,0.30,184.8,27.3,138.04,31.81,24.65,36.40,0.04,-272.75,-272.75,-48,559,-927,23.9,4.0,-20.6,23.8,4.1,-20.3,5.73,2.35,-24.0,28.7
2013-03-02 01:29:00,0.0,1.9366,0.0010,405.83,0.30,189.5,30.0,138.03,31.80,24.66,36.40,0.04,-272.75,-272.75,-48,559,-926,23.8,4.0,-20.6,23.8,4.2,-20.2,5.73,2.31,-24.1,28.7
2013-03-02 01:30:00,0.0,1.9363,0.0009,405.80,0.36,182.7,29.4,138.04,31.80,24.66,36.41,0.04,-272.75,-272.76,-48,558,-926,23.8,4.0,-20.6,23.8,4.2,-20.2,5.73,2.32,-24.0,28.7
2013-03-02 01:31:00,0.0,1.9366,0.0010,405.73,0.36,192.3,33.2,138.04,31.80,24.66,36.41,0.04,-272.76,-272.75,-48,559,-926,23.8,4.0,-20.6,23.8,4.2,-20.2,5.73,2.36,-24.0,28.7
2013-03-02 01:32:00,0.0,1.9366,0.0007,405.76,0.43,192.0,33.4,138.04,31.80,24.66,36.41,0.04,-272.75,-272.75,-48,559,-926,23.8,4.1,-20.5,23.8,4.2,-20.1,5.73,2.39,-24.0,28.7
2013-03-02 01:33:00,0.0,1.9366,0.0010,405.88,0.43,194.6,29.2,138.04,31.80,24.66,36.41,0.04,-272.75,-272.76,-48,559,-926,23.9,4.1,-20.5,23.8,4.2,-20.1,5.73,2.38,-24.0,28.7
2013-03-02 01:34:00,0.0,1.9371,0.0008,405.87,0.39,190.8,29.6,138.04,31.79,24.66,36.40,0.04,-272.75,-272.76,-48,559,-927,23.9,4.1,-20.5,23.8,4.2,-20.1,5.73,2.35,-24.0,28.7
2013-03-02 01:35:00,0.0,1.9371,0.0007,405.79,0.37,188.1,32.5,138.04,31.79,24.66,36.41,0.04,-272.75,-272.76,-48,559,-926,23.9,4.1,-20.5,23.8,4.2,-20.1,5.73,2.31,-24.0,28.7
2013-03-02 01:36:00,0.0,1.9367,0.0009,405.80,0.35,194.0,29.1,138.04,31.78,24.66,36.41,0.04,-272.75,-272.75,-48,559,-926,23.9,4.1,-20.5,23.8,4.2,-20.1,5.73,2.31,-24.0,28.7
2013-03-02 01:37:00,0.0,1.9369,0.0008,405.72,0.37,187.0,28.9,138.04,31.78,24.66,36.41,0.04,-272.75,-272.75,-48,559,-926,23.9,4.1,-20.5,23.8,4.2,-20.1,5.73,2.35,-24.0,28.8
2013-03-02 01:38:00,0.0,1.9370,0.0009,405.84,0.39,190.3,29.7,138.04,31.78,24.66,36.41,0.04,-272.75,-272.76,-48,559,-926,23.9,4.1,-20.5,23.8,4.2,-20.1,5.73,2.39,-24.0,28.7
2013-03-02 01:39:00,0.0,1.9370,0.0011,405.87,0.42,189.3,24.7,138.04,31.78,24.65,36.41,0.04,-272.76,-272.75,-49,559,-926,23.9,4.1,-20.5,23.8,4.2,-20.1,5.73,2.38,-24.0,28.7
2013-03-02 01:40:00,0.0,1.9367,0.0010,405.93,0.35,188.2,27.8,138.04,31.78,24.66,36.40,0.04,-272.76,-272.76,-49,559,-926,23.9,4.1,-20.5,23.8,4.2,-20.1,5.73,2.35,-24.0,28.7
2013-03-02 01:41:00,0.0,1.9367,0.0010,405.83,0.35,189.7,30.2,138.04,31.77,24.66,36.40,0.04,-272.75,-272.75,-49,559,-926,23.9,4.2,-20.0,23.8,4.4,-19.7,5.73,2.31,-24.0,28.7
2013-03-02 01:42:00,0.0,1.9370,0.0009,405.87,0.34,191.0,30.6,138.04,31.77,24.66,36.40,0.04,-272.75,-272.75,-49,559,-926,23.9,4.1,-20.3,23.8,4.3,-19.8,5.73,2.31,-24.0,28.8
2013-03-02 01:43:00,0.0,1.9372,0.0011,405.84,0.40,186.7,35.2,138.04,31.77,24.66,36.40,0.04,-272.75,-272.75,-49,559,-925,23.9,4.1,-20.5,23.8,4.2,-20.1,5.73,2.36,-24.0,28.8
2013-03-02 01:44:00,0.0,1.9366,0.0009,405.90,0.35,179.5,28.0,138.04,31.76,24.66,36.41,0.04,-272.76,-272.75,-49,559,-926,23.9,4.0,-20.5,23.8,4.2,-20.2,5.73,2.39,-24.0,28.8
2013-03-02 01:45:00,0.0,1.9366,0.0009,405.78,0.35,186.6,32.3,138.04,31.76,24.66,36.41,0.04,-272.75,-272.75,-49,559,-925,23.9,4.0,-20.6,23.8,4.2,-20.2,5.73,2.38,-24.0,28.8
2013-03-02 01:46:00,0.0,1.9364,0.0009,405.85,0.38,190.9,30.4,138.04,31.76,24.66,36.41,0.04,-272.75,-272.75,-49,559,-926,23.9,4.0,-20.5,23.8,4.2,-20.1,5.73,2.34,-24.0,28.7
2013-03-02 01:47:00,0.0,1.9366,0.0009,405.85,0.35,191.7,27.9,138.04,31.75,24.66,36.40,0.04,-272.75,-272.76,-49,559,-925,23.9,4.1,-20.5,23.8,4.2,-20.1,5.73,2.31,-24.0,28.7
2013-03-02 01:48:00,0.0,1.9365,0.0008,405.80,0.34,194.9,29.2,138.04,31.75,24.66,36.40,0.04,-272.75,-272.75,-49,559,-926,23.9,4.1,-20.5,23.8,4.2,-20.1,5.73,2.32,-24.0,28.8
2013-03-02 01:49:00,0.0,1.9361,0.0008,405.79,0.46,194.2,31.4,138.04,31.75,24.66,36.41,0.04,-272.75,-272.75,-49,559,-925,23.9,4.0,-20.5,23.8,4.2,-20.2,5.73,2.36,-24.0,28.7
2013-03-02 01:50:00,0.0,1.9364,0.0009,405.77,0.41,195.0,24.9,138.04,31.75,24.66,36.40,0.04,-272.75,-272.76,-49,559,-926,23.8,4.0,-20.6,23.8,4.2,-20.2,5.73,2.39,-24.0,28.8
2013-03-02 01:51:00,0.0,1.9363,0.0009,405.81,0.37,185.2,26.9,138.04,31.75,24.66,36.40,0.04,-272.76,-272.75,-49,559,-925,23.9,4.0,-20.6,23.8,4.2,-20.2,5.73,2.37,-24.0,28.8
2013-03-02 01:52:00,0.0,1.9363,0.0008,405.76,0.34,197.2,31.8,138.04,31.75,24.66,36.41,0.04,-272.75,-272.75,-49,559,-926,23.9,4.0,-20.6,23.8,4.2,-20.2,5.73,2.33,-24.0,28.8
2013-03-02 01:53:00,0.0,1.9364,0.0009,405.79,0.41,184.2,29.9,138.04,31.75,24.66,36.41,0.04,-272.75,-272.75,-49,559,-925,23.9,4.0,-20.6,23.8,4.2,-20.2,5.73,2.31,-24.0,28.7
2013-03-02 01:54:00,0.0,1.9365,0.0010,405.75,0.40,190.1,26.5,138.04,31.75,24.66,36.41,0.04,-272.75,-272.75,-49,559,-926,23.8,4.0,-20.6,23.8,4.2,-20.2,5.73,2.32,-24.0,28.7
2013-03-02 01:55:00,0.0,1.9367,0.0010,405.72,0.37,191.7,30.4,138.04,31.75,24.65,36.41,0.04,-272.75,-272.75,-49,559,-925,23.9,4.0,-20.6,23.8,4.2,-20.2,5.73,2.36,-24.0,28.6
2013-03-02 01:56:00,0.0,1.9364,0.0008,405.76,0.38,192.9,30.0,138.04,31.74,24.65,36.40,0.04,-272.75,-272.75,-49,559,-926,23.9,4.0,-20.6,23.8,4.1,-20.3,5.73,2.38,-24.1,28.7
2013-03-02 01:57:00,0.0,1.9362,0.0009,405.80,0.33,182.8,31.0,138.04,31.74,24.66,36.41,0.04,-272.75,-272.76,-49,559,-925,23.9,4.0,-20.6,23.8,4.1,-20.3,5.73,2.37,-24.0,28.7
2013-03-02 01:58:00,0.0,1.9360,0.0008,405.70,0.44,193.1,31.6,138.04,31.74,24.66,36.41,0.04,-272.75,-272.76,-49,559,-926,23.9,4.0,-20.6,23.8,4.2,-20.2,5.73,2.32,-24.0,28.7
2013-03-02 01:59:00,0.0,1.9358,0.0009,405.65,0.36,181.5,30.9,138.04,31.74,24.66,36.41,0.04,-272.75,-272.75,-49,559,-925,23.9,4.0,-20.6,23.8,4.2,-20.2,5.73,2.31,-24.0,28.7
2013-03-02 02:00:00,0.0,1.9360,0.0011,405.70,0.37,184.4,31.2,138.04,31.74,24.66,36.41,0.04,-272.75,-272.75,-49,559,-926,23.9,4.0,-20.6,23.8,4.2,-20.2,5.73,2.33,-24.0,28.7
2013-03-02 02:01:00,0.0,1.9358,0.0009,405.69,0.37,193.5,27.7,138.04,31.73,24.66,36.41,0.04,-272.75,-272.75,-49,559,-925,23.8,4.0,-20.6,23.8,4.2,-20.2,5.73,2.37,-24.0,28.7
2013-03-02 02:02:00,0.0,1.9355,0.0010,405.80,0.41,187.2,29.3,138.04,31.73,24.66,36.40,0.04,-272.75,-272.76,-49,559,-926,23.8,4.0,-20.6,23.8,4.2,-20.2,5.73,2.38,-24.1,28.7
2013-03-02 02:03:00,0.0,1.9359,0.0009,405.61,0.33,184.6,27.2,138.04,31.73,24.66,36.41,0.04,-272.75,-272.75,-49,559,-925,23.8,4.0,-20.6,23.8,4.2,-20.3,5.73,2.38,-24.1,28.7
2013-03-02 02:04:00,0.0,1.9354,0.0008,405.82,0.41,180.4,24.9,138.04,31.72,24.66,36.40,0.04,-272.75,-272.76,-49,559,-926,23.8,4.0,-20.7,23.8,4.1,-20.3,5.73,2.34,-24.1,28.7
2013-03-02 02:05:00,0.0,1.9353,0.0010,405.65,0.30,183.3,25.0,138.04,31.72,24.66,36.41,0.04,-272.75,-272.75,-49,559,-925,23.8,4.0,-20.6,23.8,4.2,-20.3,5.73,2.31,-24.1,28.7
2013-03-02 02:06:00,0.0,1.9354,0.0009,405.68,0.37,175.4,29.9,138.04,31.72,24.66,36.40,0.04,-272.75,-272.75,-49,559,-926,23.8,4.0,-20.6,23.8,4.2,-20.2,5.73,2.31,-24.1,28.7
2013-03-02 02:07:00,0.0,1.9356,0.0008,405.71,0.38,185.3,27.7,138.04,31.72,24.65,36.40,0.04,-272.75,-272.75,-49,559,-925,23.8,4.0,-20.6,23.8,4.2,-20.2,5.73,2.35,-24.1,28.7
2013-03-02 02:08:00,0.0,1.9351,0.0009,405.60,0.38,185.3,28.6,138.04,31.72,24.66,36.41,0.04,-272.75,-272.75,-49,559,-925,23.8,4.0,-20.6,23.8,4.2,-20.2,5.73,2.38,-24.1,28.7
2013-03-02 02:09:00,0.0,1.9353,0.0009,405.63,0.39,183.4,30.1,138.04,31.72,24.66,36.41,0.04,-272.75,-272.75,-49,559,-925,23.8,4.0,-20.6,23.8,4.2,-20.2,5.73,2.38,-24.1,28.6
2013-03-02 02:10:00,0.0,1.9347,0.0009,405.56,0.33,193.9,31.4,138.04,31.72,24.66,36.41,0.04,-272.75,-272.75,-49,559,-925,23.8,4.0,-20.6,23.8,4.2,-20.2,5.73,2.34,-24.1,28.6
2013-03-02 02:11:00,0.0,1.9349,0.0010,405.64,0.38,185.0,30.2,138.04,31.72,24.66,36.41,0.04,-272.75,-272.75,-50,559,-926,23.8,4.0,-20.5,23.8,4.2,-20.1,5.73,2.30,-24.1,28.6
2013-03-02 02:12:00,0.0,1.9352,0.0009,405.56,0.38,187.4,28.3,138.04,31.72,24.66,36.41,0.04,-272.75,-272.76,-49,559,-925,23.8,4.1,-20.5,23.8,4.2,-20.1,5.73,2.32,-24.1,28.6
2013-03-02 02:13:00,0.0,1.9353,0.0008,405.71,0.35,188.7,30.3,138.04,31.72,24.65,36.40,0.04,-272.75,-272.75,-49,559,-926,23.8,4.0,-20.5,23.8,4.2,-20.1,5.73,2.36,-24.1,28.7
2013-03-02 02:14:00,0.0,1.9354,0.0010,405.65,0.38,180.3,28.3,138.04,31.72,24.66,36.41,0.04,-272.75,-272.76,-49,559,-925,23.8,4.0,-20.6,23.8,4.2,-20.2,5.73,2.39,-24.1,28.7
2013-03-02 02:15:00,0.0,1.9353,0.0010,405.67,0.37,179.0,31.3,138.04,31.71,24.66,36.40,0.04,-272.75,-272.75,-49,559,-925,23.8,4.0,-20.6,23.8,4.2,-20.2,5.73,2.37,-24.1,28.6
2013-03-02 02:16:00,0.0,1.9349,0.0008,405.60,0.37,189.1,24.8,138.04,31.71,24.66,36.41,0.04,-272.75,-272.75,-49,559,-925,23.8,4.0,-20.5,23.8,4.2,-20.2,5.73,2.32,-24.1,28.6